Vorticity
12 11 10 10 10 11 11 10 11 11 10 10 9 10 10 10 12 12 12 12 10 11 11 12 13 12 10 11 15 19 20 16 7 4 4 2 5 2 -4 -1 2 0
13 12 10 9 9 10 12 12 12 12 11 12 11 10 11 10 10 11 11 12 12 11 10 9 10 12 13 10 10 14 19 22 17 9 6 3 2 5 -0 -5 -1 3
14 14 12 10 9 9 11 13 14 14 13 14 13 12 12 11 11 10 10 11 11 11 11 11 9 8 12 12 10 11 13 20 23 17 11 8 3 2 3 3 1 3
13 14 13 11 10 9 10 12 13 14 14 15 15 15 14 13 13 12 11 10 10 11 12 12 12 9 8 11 12 11 10 13 20 23 19 14 10 4 1 4 4 2
12 11 11 10 9 9 9 9 11 12 13 13 13 14 14 14 14 13 13 12 10 11 12 12 14 13 10 9 10 13 12 10 13 20 22 19 16 13 7 3 3 3
11 10 9 9 8 8 8 8 9 10 10 11 10 10 11 11 12 12 12 12 11 10 11 12 13 14 14 11 9 10 12 13 12 13 19 21 19 18 16 12 6 2
13 12 11 10 9 8 8 8 8 8 9 10 11 10 8 7 8 9 9 10 11 10 9 9 10 11 14 14 12 10 9 12 13 11 13 17 20 20 18 18 15 9
11 12 12 11 11 9 9 9 8 8 8 8 10 12 11 9 7 6 7 7 7 9 9 8 9 10 10 12 14 13 10 9 11 12 12 12 16 20 19 19 18 16
8 10 10 10 10 10 10 9 9 9 8 7 7 9 12 13 11 8 7 7 6 6 7 7 8 8 9 10 11 12 13 11 10 11 13 12 11 14 17 19 19 17
8 9 9 10 9 9 9 9 10 10 9 9 7 8 10 12 13 12 9 9 8 7 7 8 8 8 8 9 9 10 12 11 10 11 11 13 12 11 13 15 19 19
10 9 9 10 11 11 11 10 10 10 10 11 10 9 10 11 13 14 13 11 9 7 7 7 9 10 8 9 9 10 10 10 10 10 10 12 13 11 12 11 14 19
13 12 12 12 12 12 13 12 11 10 9 10 10 9 10 11 12 14 15 16 13 9 7 6 8 11 10 10 11 10 10 9 9 10 10 11 12 12 13 12 11 13
14 15 13 13 13 12 13 12 12 11 10 9 10 10 9 10 11 12 13 15 17 15 11 7 7 10 10 10 11 11 10 9 10 11 11 11 12 12 13 14 12 10
13 13 12 11 12 12 12 12 11 11 10 9 10 10 11 11 11 12 12 12 15 17 15 11 8 9 9 8 9 10 10 9 10 11 11 13 13 13 14 15 15 12
11 12 12 11 12 11 11 11 9 8 8 8 9 9 11 12 11 12 13 13 14 16 17 15 11 8 8 7 8 9 10 10 11 11 11 12 14 14 15 16 16 15
10 11 11 11 11 11 10 10 9 10 10 9 11 11 10 11 11 11 12 12 14 16 17 18 16 10 7 8 8 9 10 11 10 11 12 12 14 16 15 16 17 17
10 10 9 9 10 9 10 11 11 12 13 13 13 14 14 13 12 12 12 12 12 14 17 18 18 14 9 9 11 9 9 11 10 11 13 13 14 17 17 16 16 16
12 12 11 10 10 10 9 10 11 11 11 11 11 13 14 13 12 13 13 13 13 13 15 18 19 16 12 12 14 11 9 11 11 11 13 13 14 17 19 19 17 16
13 13 13 12 12 12 11 10 11 10 9 8 9 11 13 14 14 15 14 15 16 15 14 16 18 17 16 15 16 14 11 10 11 12 12 12 12 14 18 22 22 19
14 14 14 13 13 15 17 16 15 14 12 11 11 10 12 13 15 16 17 17 17 17 16 16 19 20 18 17 17 15 12 11 11 11 11 10 11 13 15 19 23 23
15 15 13 12 12 13 15 16 15 13 11 10 11 12 13 15 16 16 17 17 17 19 19 19 21 24 21 18 18 16 12 11 11 10 9 8 10 13 14 16 20 21
14 15 13 11 10 10 11 11 9 8 9 10 13 15 14 14 15 16 17 18 19 21 22 23 24 25 23 19 18 16 13 11 11 10 8 7 8 12 17 19 18 17
12 14 13 11 12 11 9 8 9 10 13 15 15 15 16 17 18 19 21 24 26 26 25 25 24 23 22 20 17 17 16 13 13 12 8 7 8 12 19 21 17 15
12 13 14 14 12 10 9 11 15 16 17 18 18 19 22 23 23 25 29 30 31 31 28 26 24 23 23 23 21 20 18 15 15 13 11 9 9 15 24 24 17 14
13 14 13 11 8 11 15 18 19 20 20 20 21 21 20 19 19 23 27 27 27 28 28 26 25 24 25 25 24 22 20 19 17 14 14 15 14 21 30 25 14 12
14 12 8 7 12 17 20 20 19 19 19 18 17 14 10 9 11 15 18 20 23 24 25 26 25 25 25 24 22 21 20 20 18 18 21 23 23 28 31 22 12 11
Height
5715 5714 5713 5713 5712 5712 5712 5712 5712 5713 5713 5714 5714 5715 5716 5717 5718 5719 5721 5722 5724 5726 5727 5729 5730 5732 5733 5735 5736 5739 5742 5744 5747 5750 5752 5756 5758 5760 5762 5764 5767 5770
5710 5710 5709 5708 5707 5707 5707 5706 5706 5707 5707 5707 5708 5709 5710 5710 5711 5712 5714 5715 5717 5718 5720 5722 5724 5725 5727 5729 5730 5731 5734 5737 5740 5742 5745 5749 5751 5754 5756 5758 5760 5763
5704 5704 5704 5703 5702 5702 5701 5701 5701 5701 5701 5701 5702 5702 5703 5704 5705 5706 5707 5708 5710 5711 5713 5715 5717 5719 5720 5722 5723 5725 5727 5730 5732 5735 5738 5741 5744 5747 5750 5752 5754 5757
5699 5698 5698 5697 5697 5696 5696 5696 5696 5695 5695 5695 5696 5696 5697 5697 5698 5699 5700 5702 5703 5704 5705 5707 5709 5711 5713 5715 5717 5718 5720 5723 5725 5727 5730 5733 5737 5740 5743 5746 5749 5751
5693 5692 5692 5692 5691 5691 5691 5690 5690 5690 5690 5690 5690 5690 5690 5691 5692 5693 5694 5695 5696 5698 5699 5700 5701 5703 5706 5708 5710 5712 5714 5716 5718 5720 5722 5725 5728 5731 5735 5738 5741 5745
5687 5686 5686 5686 5685 5685 5685 5685 5684 5684 5684 5685 5685 5684 5684 5685 5685 5686 5686 5688 5689 5691 5692 5693 5694 5696 5698 5700 5703 5705 5707 5709 5711 5713 5715 5718 5720 5723 5726 5729 5733 5737
5680 5680 5680 5679 5679 5679 5679 5679 5678 5678 5678 5679 5679 5679 5678 5678 5679 5679 5679 5680 5682 5684 5685 5687 5688 5689 5690 5692 5694 5697 5700 5702 5704 5705 5708 5710 5712 5715 5718 5721 5725 5729
5674 5674 5673 5673 5672 5672 5672 5672 5672 5672 5672 5672 5672 5673 5672 5672 5672 5672 5672 5673 5674 5676 5678 5679 5681 5683 5684 5685 5687 5689 5692 5694 5697 5698 5700 5702 5704 5708 5711 5713 5716 5720
5668 5667 5666 5666 5665 5665 5666 5666 5665 5665 5665 5665 5665 5666 5666 5665 5665 5665 5665 5665 5666 5667 5669 5671 5673 5675 5677 5678 5680 5681 5683 5686 5688 5691 5693 5694 5697 5700 5703 5705 5708 5712
5661 5660 5659 5659 5659 5659 5659 5659 5658 5658 5657 5658 5658 5658 5658 5658 5658 5657 5657 5658 5659 5659 5661 5663 5665 5666 5668 5671 5672 5674 5676 5677 5680 5682 5685 5687 5689 5692 5695 5698 5700 5703
5654 5653 5652 5652 5652 5652 5652 5652 5651 5650 5650 5650 5650 5650 5650 5650 5650 5650 5650 5650 5651 5651 5652 5654 5656 5658 5660 5662 5664 5666 5668 5670 5672 5674 5676 5679 5681 5684 5687 5691 5694 5696
5647 5646 5646 5645 5645 5645 5645 5644 5643 5643 5642 5642 5642 5643 5643 5643 5643 5642 5642 5642 5643 5644 5645 5646 5647 5649 5651 5653 5656 5658 5660 5662 5664 5665 5668 5670 5673 5676 5679 5683 5687 5690
5641 5640 5639 5639 5638 5638 5637 5637 5636 5635 5635 5634 5634 5635 5635 5635 5635 5635 5635 5635 5635 5635 5636 5637 5639 5640 5642 5644 5647 5649 5651 5654 5656 5657 5659 5661 5664 5668 5671 5674 5678 5682
5635 5634 5633 5632 5631 5631 5630 5629 5628 5628 5627 5627 5626 5627 5627 5627 5627 5627 5627 5627 5627 5627 5628 5629 5630 5632 5634 5635 5638 5640 5642 5644 5647 5649 5651 5653 5656 5659 5662 5665 5669 5674
5628 5627 5626 5625 5624 5623 5622 5621 5621 5620 5620 5619 5618 5618 5618 5619 5619 5619 5619 5619 5619 5619 5620 5621 5622 5624 5626 5627 5629 5631 5632 5635 5638 5640 5643 5645 5647 5650 5653 5657 5660 5664
5622 5621 5619 5618 5617 5616 5615 5614 5613 5613 5612 5611 5610 5610 5609 5610 5610 5610 5611 5611 5611 5612 5612 5613 5614 5616 5618 5619 5620 5621 5623 5626 5629 5631 5634 5637 5639 5642 5645 5648 5651 5655
5615 5614 5612 5611 5610 5609 5608 5607 5606 5604 5604 5603 5602 5601 5601 5600 5601 5601 5601 5602 5603 5603 5604 5604 5606 5607 5609 5609 5611 5613 5615 5617 5620 5623 5626 5629 5632 5634 5637 5640 5643 5646
5608 5607 5605 5604 5603 5602 5601 5599 5598 5597 5596 5595 5594 5593 5592 5592 5591 5592 5592 5593 5593 5594 5595 5595 5597 5598 5599 5600 5602 5603 5606 5608 5611 5614 5618 5621 5624 5627 5629 5632 5634 5637
5601 5600 5598 5597 5596 5595 5593 5592 5590 5589 5588 5586 5585 5584 5583 5583 5582 5582 5583 5583 5583 5584 5585 5586 5587 5588 5590 5591 5592 5594 5596 5599 5602 5605 5609 5613 5616 5619 5621 5623 5626 5629
5594 5593 5592 5590 5589 5587 5586 5584 5583 5581 5580 5578 5577 5576 5575 5574 5574 5573 5573 5573 5573 5573 5574 5575 5577 5578 5580 5581 5582 5584 5587 5590 5593 5597 5600 5604 5608 5611 5613 5616 5619 5621
5588 5587 5585 5583 5582 5580 5579 5577 5575 5574 5572 5570 5569 5568 5566 5565 5564 5563 5563 5562 5562 5562 5562 5564 5566 5568 5569 5571 5573 5575 5577 5580 5584 5588 5592 5596 5600 5603 5606 5609 5612 5614
5582 5580 5578 5577 5575 5574 5572 5570 5568 5566 5564 5562 5561 5559 5557 5556 5554 5553 5553 5552 5551 5551 5551 5554 5556 5558 5559 5561 5563 5565 5568 5571 5575 5580 5584 5588 5592 5596 5598 5601 5604 5607
5576 5574 5572 5571 5569 5567 5565 5563 5561 5559 5556 5554 5552 5550 5548 5546 5545 5544 5543 5542 5541 5540 5541 5543 5546 5548 5549 5552 5554 5556 5559 5563 5567 5571 5575 5580 5584 5588 5591 5594 5597 5601
5570 5568 5566 5565 5563 5561 5559 5556 5554 5551 5549 5546 5544 5542 5539 5537 5535 5534 5534 5533 5531 5531 5532 5534 5537 5539 5540 5543 5545 5546 5549 5554 5558 5562 5567 5571 5575 5580 5583 5587 5591 5594
5564 5563 5561 5559 5557 5555 5552 5550 5547 5544 5542 5539 5536 5533 5531 5530 5528 5526 5526 5525 5523 5523 5523 5525 5528 5530 5532 5533 5535 5537 5541 5546 5549 5554 5559 5563 5567 5571 5576 5580 5584 5587
5559 5557 5556 5553 5551 5549 5546 5543 5540 5538 5535 5532 5530 5527 5525 5523 5521 5519 5519 5518 5516 5516 5516 5518 5520 5522 5524 5525 5527 5530 5534 5538 5541 5545 5551 5555 5558 5563 5568 5573 5577 5581